• Processing (Info)

  • MPEC 2016-J103: 2016 JJ24

    The following Minor Planet Electronic Circular may be linked-to from your own Web pages, but must not otherwise be redistributed electronically.

    A form allowing access to any MPEC is at the bottom of this page.


    Read MPEC 2016-J102 Read MPEC 2016-J104


    M.P.E.C. 2016-J103                               Issued 2016 May 10, 15:19 UT
    
         The Minor Planet Electronic Circulars contain information on unusual
             minor planets and routine data on comets.  They are published
        on behalf of Division F of the International Astronomical Union by the
              Minor Planet Center, Smithsonian Astrophysical Observatory,
                              Cambridge, MA 02138, U.S.A.
    
                 Prepared using the Tamkin Foundation Computer Network
    
                                  MPC@CFA.HARVARD.EDU
                URL https://www.minorplanetcenter.net/    ISSN 1523-6714
    
                                       2016 JJ24
    
    Observations:
         K16J24J* C2016 05 05.45599 15 07 31.624-04 58 35.97         22.1 wLEJ103F51
         K16J24J  C2016 05 05.46799 15 07 30.024-04 58 27.89         22.4 wLEJ103F51
         K16J24J  C2016 05 05.47998 15 07 28.449-04 58 19.67         21.9 wLEJ103F51
         K16J24J KC2016 05 06.26283815 05 46.74 -04 49 34.1          22.6 VuEJ103H21
         K16J24J KC2016 05 06.27929215 05 44.60 -04 49 23.5          22.4 VuEJ103H21
         K16J24J KC2016 05 06.29330415 05 42.78 -04 49 14.8          22.3 VuEJ103H21
         K16J24J _C2016 05 06.41592615 05 27.026-04 47 50.08         21.8 RtEJ103568
         K16J24J _C2016 05 06.41720515 05 26.853-04 47 49.23         21.8 RtEJ103568
         K16J24J _C2016 05 09.32755314 59 14.653-04 16 30.10               tEJ103568
         K16J24J _C2016 05 09.32859814 59 14.512-04 16 29.41         21.9 RtEJ103568
         K16J24J _C2016 05 09.33366014 59 13.859-04 16 26.40         21.9 RtEJ103568
         K16J24J _C2016 05 09.33470814 59 13.725-04 16 25.68         21.8 RtEJ103568
         K16J24J _C2016 05 09.33575814 59 13.592-04 16 25.09         22.2 RtEJ103568
         K16J24J KC2016 05 09.42094 14 59 02.29 -04 15 34.3                oEJ103291
         K16J24J KC2016 05 09.42723 14 59 01.42 -04 15 29.6                oEJ103291
         K16J24J KC2016 05 09.43354 14 59 00.65 -04 15 25.3                oEJ103291
         K16J24J KC2016 05 10.26087 14 57 17.29 -04 06 54.7          22.1 RoEJ103291
         K16J24J KC2016 05 10.26726 14 57 16.45 -04 06 52.4                oEJ103291
         K16J24J KC2016 05 10.27369 14 57 15.60 -04 06 47.9          23.2 RoEJ103291
    
    Observer details:
    291 LPL/Spacewatch II.  Observer A. F. Tubbiolo.  1.8-m f/2.7 reflector + CCD.
    568 Mauna Kea.  Observers R. J. Wainscoat, D. Woodworth, L. Wells.  Measurers
        M. Micheli, R. J. Wainscoat.  3.6-m Canada-France-Hawaii Telescope + CCD.
    F51 Pan-STARRS 1, Haleakala.  Observers B. Gibson, T. Goggia, N. Primak,
        A. Schultz, M. Willman.  Measurers K. Chambers, S. Chastel, L. Denneau,
        H. Flewelling, M. Huber, E. Lilly, E. Magnier, R. Wainscoat, C. Waters,
        R. Weryk.  1.8-m Ritchey-Chretien + CCD.
    H21 Astronomical Research Observatory, Westfield.  Observer R. Holmes.
        Measurers S. Foglia, L. Buzzi, T. Linder, R. Holmes.  0.81-m f/4.0
        astrograph + CCD.
    
    Orbital elements:
    2016 JJ24                                           PHA, Earth MOID = 0.0140 AU
    Epoch 2016 July 31.0 TT = JDT 2457600.5                 MPC
    M 172.30094              (2000.0)            P               Q
    n   0.65321375     Peri.  228.99439     +0.50217629     -0.86397034
    a   1.3155252      Node   191.04244     +0.84010639     +0.49757226
    e   0.7680924      Incl.   11.15969     +0.20503714     +0.07731176
    P   1.51           H   19.8           G   0.15           U   9
    Residuals in seconds of arc
    160505 F51  0.2-  0.0     160506 568  0.1+  0.2+    160509 291  0.8-  0.2-
    160505 F51  0.2-  0.1-    160509 568  0.2+  0.1+    160509 291  0.3-  0.2+
    160505 F51  0.2+  0.0     160509 568  0.1+  0.1+    160510 291  0.6+  1.1+
    160506 H21  0.3-  0.5+    160509 568  0.1+  0.0     160510 291  0.2+  0.5-
    160506 H21  0.3+  0.1+    160509 568  0.1+  0.1+    160510 291  0.2-  0.1+
    160506 H21  0.7+  0.5-    160509 568  0.1+  0.0
    160506 568  0.1+  0.2+    160509 291  0.1+  1.0-
    
    Ephemeris:
    2016 JJ24                a,e,i = 1.32, 0.77, 11                  q = 0.3051
    Date    TT    R. A. (2000) Decl.     Delta      r     Elong.  Phase     V
    2016 04 10    16 00 08.1 -10 17 45   1.1209  1.9903   139.2    19.2    22.5
    ...
    2016 04 25    15 30 27.5 -07 05 52   1.0968  2.0693   159.5     9.8    22.2
    ...
    2016 05 03    15 12 53.8 -05 26 57   1.1118  2.1067   167.2     6.1    22.1
    ...
    2016 05 09    14 59 55.9 -04 19 53   1.1370  2.1326   166.9     6.1    22.2
    2016 05 10    14 57 49.9 -04 09 31   1.1423  2.1368   166.3     6.4    22.2
    2016 05 11    14 55 45.3 -03 59 25   1.1480  2.1409   165.5     6.8    22.3
    ...
    2016 05 17    14 43 54.0 -03 04 45   1.1886  2.1645   159.4     9.5    22.5
    ...
    2016 05 25    14 30 06.5 -02 08 54   1.2589  2.1934   149.6    13.5    22.8
    ...
    2016 06 09    14 11 39.4 -01 16 51   1.4315  2.2396   131.8    19.8    23.3
    
    A. U. Tomatic                (C) Copyright 2016 MPC           M.P.E.C. 2016-J103
    

    Read MPEC 2016-J102 Read MPEC 2016-J104


    MPEC number:

    Enter an MPEC number in one of the following forms:

    • 1997-B01 (the full form)
    • J97B01 (the packed version of the full form)
    • B01 (the abbreviated form)